Change the Weather History Date:

Tuesday, January 14, 2014

  Actual Average Record
Temperature  
Mean Temperature 48 °F 44 °F  
Max Temperature 61 °F 56 °F 78 °F (1937)
Min Temperature 34 °F 33 °F 15 °F (1963)
Degree Days  
Heating Degree Days 17 21  
Month to date heating degree days 338 287  
Since 1 July heating degree days 1383 1295  
Cooling Degree Days 0 0  
Month to date cooling degree days 0 0  
Year to date cooling degree days 0 0  
Moisture  
Dew Point 37 °F    
Average Humidity 66    
Maximum Humidity 100    
Minimum Humidity 32    
Precipitation  
Precipitation 0.00 in 0.16 in 1.13 in (1918)
Month to date precipitation 2.22 2.06  
Year to date precipitation 2.22 2.06  
Sea Level Pressure  
Sea Level Pressure 30.04 in    
Wind  
Wind Speed 3 mph (SW)    
Max Wind Speed 10 mph    
Max Gust Speed 13 mph    
Visibility 7 miles    
Events Fog    
T = Trace of Precipitation, MM = Missing Value Source: NWS Daily Summary

Daily Weather History Graph

Daily Weather History Graph

Search for Another Location

Airport or City:

Trip Planner

Search our weather history database for the weather conditions in past years. The results will help you decide how hot, cold, wet, or windy it might be!

Date:

Astronomy

Jan. 14, 2014 Rise Set
Actual Time 6:56 AM CST 5:11 PM CST
Civil Twilight 6:30 AM CST 5:38 PM CST
Nautical Twilight 5:59 AM CST 6:08 PM CST
Astronomical Twilight 5:30 AM CST 6:38 PM CST
Moon 4:15 PM CST (1/14) 5:32 AM CST (1/14)
Length of Visible Light 11h 08m
Length of Day
10h 15m
Waxing Gibbous, 98% of the Moon is Illuminated
Jan 14
Waxing Gibbous
Jan 15
Full
Jan 23
Last Quarter
Jan 30
New
Feb 6
First Quarter

Hourly Weather History & Observations

Time (CST) Temp. Windchill Dew Point Humidity Pressure Visibility Wind Dir Wind Speed Gust Speed Precip Events Conditions
12:58 AM 51.1 °F - 48.9 °F 92% 29.95 in 10.0 mi NNW 5.8 mph - N/A   Scattered Clouds
1:58 AM 48.9 °F - 46.0 °F 90% 29.96 in 10.0 mi NW 5.8 mph - N/A   Clear
2:58 AM 46.9 °F - 45.0 °F 93% 29.97 in 10.0 mi WNW 3.5 mph - N/A   Clear
3:58 AM 44.1 °F - 43.0 °F 96% 29.99 in 10.0 mi Calm Calm - N/A   Clear
4:58 AM 43.0 °F 41.3 °F 41.0 °F 93% 30.00 in 10.0 mi NW 3.5 mph - N/A   Clear
5:54 AM 37.4 °F - 37.4 °F 100% 30.03 in 1.8 mi Calm Calm - N/A   Clear
5:58 AM 37.9 °F - 37.9 °F 100% 30.02 in 1.0 mi Calm Calm - N/A   Clear
6:06 AM 39.2 °F - 37.4 °F 93% 30.03 in 0.8 mi Calm Calm - N/A   Clear
6:13 AM 37.4 °F - 37.4 °F 100% 30.03 in 1.8 mi Calm Calm - N/A   Clear
6:25 AM 37.4 °F - 35.6 °F 93% 30.04 in 1.2 mi Calm Calm - N/A   Clear
6:37 AM 35.6 °F - 35.6 °F 100% 30.04 in 10.0 mi Calm Calm - N/A   Clear
6:49 AM 35.6 °F - 35.6 °F 100% 30.05 in 10.0 mi Calm Calm - N/A   Clear
6:58 AM 35.1 °F 32.2 °F 35.1 °F 100% 30.05 in 10.0 mi South 3.5 mph - N/A   Partly Cloudy
7:05 AM 33.8 °F - 33.8 °F 100% 30.05 in 0.2 mi Calm Calm - N/A Fog Fog
7:13 AM 35.6 °F - 35.6 °F 100% 30.05 in 0.2 mi Calm Calm - N/A Fog Fog
7:22 AM 35.6 °F 32.8 °F 35.6 °F 100% 30.05 in 0.2 mi South 3.5 mph - N/A Fog Fog
7:46 AM 35.6 °F - 35.6 °F 100% 30.07 in 0.2 mi Calm Calm - N/A Fog Fog
7:54 AM 37.4 °F - 37.4 °F 100% 30.07 in 0.5 mi Calm Calm - N/A Fog Fog
7:58 AM 37.0 °F - 37.0 °F 100% 30.07 in 10.0 mi Calm Calm - N/A   Clear
8:05 AM 37.4 °F - 37.4 °F 100% 30.08 in 1.2 mi Calm Calm - N/A   Clear
8:12 AM 39.2 °F 37.0 °F 39.2 °F 100% 30.08 in 10.0 mi South 3.5 mph - N/A   Clear
8:58 AM 43.0 °F - 41.0 °F 93% 30.08 in 10.0 mi Calm Calm - N/A   Clear
9:58 AM 50.0 °F - 39.9 °F 68% 30.08 in 10.0 mi Calm Calm - N/A   Clear
10:58 AM 55.9 °F - 36.0 °F 47% 30.08 in 10.0 mi Calm Calm - N/A   Clear
11:58 AM 57.9 °F - 32.0 °F 37% 30.04 in 10.0 mi SSW 3.5 mph - N/A   Clear
12:58 PM 60.1 °F - 30.9 °F 33% 30.02 in 10.0 mi West 6.9 mph - N/A   Clear
1:58 PM 60.1 °F - 30.0 °F 32% 30.02 in 10.0 mi WNW 6.9 mph - N/A   Clear
2:58 PM 61.0 °F - 30.9 °F 32% 30.02 in 10.0 mi South 4.6 mph - N/A   Clear
3:58 PM 60.1 °F - 30.9 °F 33% 30.02 in 10.0 mi SSW 6.9 mph - N/A   Clear
4:58 PM 57.0 °F - 34.0 °F 42% 30.03 in 10.0 mi SW 4.6 mph - N/A   Clear
5:58 PM 46.9 °F - 39.0 °F 74% 30.05 in 10.0 mi South 3.5 mph - N/A   Clear
6:58 PM 43.0 °F - 39.0 °F 86% 30.06 in 10.0 mi Calm Calm - N/A   Clear
7:58 PM 39.9 °F 37.8 °F 37.9 °F 93% 30.07 in 10.0 mi SSW 3.5 mph - N/A   Clear
8:58 PM 39.0 °F 35.7 °F 37.0 °F 93% 30.07 in 10.0 mi SSW 4.6 mph - N/A   Clear
9:58 PM 37.0 °F - 35.1 °F 93% 30.07 in 10.0 mi Calm Calm - N/A   Clear
10:58 PM 37.9 °F - 35.1 °F 89% 30.06 in 10.0 mi Calm Calm - N/A   Overcast
11:58 PM 39.9 °F - 36.0 °F 86% 30.07 in 10.0 mi Calm Calm - N/A   Mostly Cloudy